Regional Weather Roundup
Issued by NWS

Home | Current Version | Previous Version | Graphics & Text | Print | Product List | Glossary On
Versions: 1 2 3 4 5 6 7 8 9 10 11 12 13 14 15 16 17 18 19 20 21 22 23 24 25 26 27 28 29 30 31 32 33 34 35 36 37 38 39 40 41 42 43 44 45 46 47 48 49 50
000
ASUS45 KSLC 291110
RWRUT

UTAH REGIONAL WEATHER ROUNDUP
NATIONAL WEATHER SERVICE SALT LAKE CITY UT
500 AM MDT MON MAY 29 2017

UTZ001>011-023>025-291200-

NORTHERN UTAH

CITY           SKY/WX    TMP DP  RH WIND       PRES   REMARKS
BRIGHAM CITY   CLEAR     51  42  70 NW3       30.15F
HILL AFB       CLEAR     55  36  47 E17       30.15S
LOGAN          CLEAR     47  40  76 CALM      30.19S
OGDEN          CLEAR     54  37  52 S9        30.14S
SALT LAKE CITY CLEAR     56  41  57 SE6       30.13S
TOOELE VALLEY  CLEAR     45  37  76 S9        30.15S
WENDOVER       CLEAR     56  31  38 NW5       30.15
HEBER CITY     CLEAR     37  34  87 CALM      30.22S
WEST JORDAN    CLEAR     55  42  62 CALM      30.16S

$$

UTZ011>015-024>027-291200-

CENTRAL/NORTHEAST UTAH

CITY           SKY/WX    TMP DP  RH WIND       PRES   REMARKS
PROVO AIRPORT  CLEAR     51  35  54 CALM      30.16S
MOAB/CANYONLAN CLEAR     50  16  25 W3        30.11R
DELTA          CLEAR     50  27  40 S3        30.16S
PRICE          CLEAR     54  29  38 N3        30.19R
ROOSEVELT      CLEAR     43  34  70 W7        30.22R
VERNAL         CLEAR     46  31  55 CALM      30.20S

$$

UTZ013>016-019>022-027-291200-

SOUTHERN UTAH

CITY           SKY/WX    TMP DP  RH WIND       PRES   REMARKS
BRYCE CANYON   CLEAR     36  24  62 W10       30.29S WCI  28
CEDAR CITY     CLEAR     47  23  38 SE3       30.17S
MILFORD        CLEAR     43  22  43 S6        30.16S
ST GEORGE      SUNNY     64  26  23 CALM      30.01R
HANKSVILLE     CLEAR     46  12  25 NW5       30.14S
BLANDING       CLEAR     50  23  34 N12       30.25S

$$

REGIONAL REPORTS     COLORADO/ARIZONA

CITY           SKY/WX    TMP DP  RH WIND       PRES   REMARKS
CRAIG, CO      CLEAR     34  30  85 CALM      30.27S
GRAND JUNCTION CLEAR     52  29  41 SE13      30.16S
RIFLE, CO      CLEAR     44  28  53 SE3       30.23S
MONTROSE, CO   CLEAR     47  22  37 SE9       30.23R
CORTEZ, CO     CLEAR     35  27  72 CALM      30.20S
COLORADO CITY    N/A     55  27  33 CALM      30.13S
PAGE, AZ       CLEAR     63  23  21 SW3       30.08R
GRAND CANYON   PTCLDY    46  24  42 E5        30.21S
KINGMAN, AZ    CLEAR     56  18  22 MISG      29.96S
FLAGSTAFF, AZ  CLEAR     38  22  52 NE3       30.22S

$$

REGIONAL REPORTS    NEVADA/IDAHO/WYOMING

CITY           SKY/WX    TMP DP  RH WIND       PRES   REMARKS
LAS VEGAS, NV  CLEAR     74  21  13 SW5       29.88S
ELY, NY        CLEAR     36  24  62 S10       30.24S WCI  28
ELKO, NV       CLEAR     44  35  70 CALM      30.18S
POCATELLO, ID  CLEAR     41  38  89 NW5       30.20R
BURLEY, ID     CLEAR     47  43  86 S3        30.15S
FORT BRIDGER,    N/A     43  32  65 MISG      30.33S
EVANSTON, WY   CLEAR     42  33  70 E8        30.30R
ROCK SPRINGS,  CLOUDY    43  36  76 E3        30.31S
KEMMERER, WY     N/A     41  34  75 N7        30.33S

$$



USA.gov is the U.S. government's official web portal to all federal, state and local government web resources and services.